BEL1TE EBBR-LGKO

Flight info

Callsign BEL1TE
Flight time N/A
Altitude 35000
Route SOPOK Y863 ROPUV L607 EMGOD DCT BOMBI DCT DETEV DCT DINKU DCT BESNI DCT LATLO DCT OBEDI DCT PODET DCT SOMUN DCT NISVA Y505 NIKTI UN127 LMO UL618 MES UN139 LURUS UL995 KOPAR
Aircraft A320/M-DE3FGHIJ1LORVWY/H

Departure

Time N/A
Airport Brussels Airport (EBBR)

Arrival

Time 2026-05-07 09:55
Airport Kos International Airport "Ippokratis" (LGKO)
Time Latitude Longitude Altitude Speed Heading
2026-05-07 08:45 43.37178 21.93279 35136 ft 458 kts 126°
2026-05-07 08:46 43.33796 22.00707 35128 ft 458 kts 126°
2026-05-07 08:46 43.30982 22.06876 35128 ft 458 kts 126°
2026-05-07 08:47 43.27017 22.15540 35108 ft 459 kts 126°
2026-05-07 08:47 43.24191 22.21707 35109 ft 460 kts 126°
2026-05-07 08:48 43.20781 22.29137 35104 ft 461 kts 126°
2026-05-07 08:48 43.17357 22.36565 35110 ft 461 kts 126°
2026-05-07 08:49 43.13923 22.43992 35106 ft 461 kts 126°
2026-05-07 08:49 43.10488 22.51408 35109 ft 462 kts 126°
2026-05-07 08:50 43.07041 22.58831 35104 ft 462 kts 126°
2026-05-07 08:50 43.03592 22.66242 35112 ft 462 kts 127°
2026-05-07 08:51 43.00156 22.73599 35113 ft 462 kts 126°
2026-05-07 08:51 42.96267 22.80490 35117 ft 454 kts 141°
2026-05-07 08:52 42.91357 22.85803 35115 ft 449 kts 147°
2026-05-07 08:52 42.86355 22.90921 35119 ft 450 kts 147°
2026-05-07 08:53 42.81357 22.96035 35104 ft 450 kts 147°
2026-05-07 08:53 42.76331 23.01158 35113 ft 450 kts 147°
2026-05-07 08:54 42.71310 23.06266 35120 ft 451 kts 147°
2026-05-07 08:54 42.66285 23.11370 35126 ft 451 kts 148°
2026-05-07 08:55 42.61274 23.16432 35128 ft 451 kts 147°
2026-05-07 08:55 42.56233 23.21520 35117 ft 452 kts 147°
2026-05-07 08:56 42.51178 23.26613 35116 ft 453 kts 147°
2026-05-07 08:56 42.46114 23.31698 35123 ft 453 kts 148°
2026-05-07 08:57 42.41042 23.36789 35122 ft 453 kts 147°
2026-05-07 08:57 42.35973 23.41869 35121 ft 453 kts 148°
2026-05-07 08:58 42.30890 23.46951 35121 ft 454 kts 147°
2026-05-07 08:58 42.25708 23.51828 35116 ft 454 kts 151°
2026-05-07 08:59 42.20363 23.56347 35119 ft 454 kts 152°
2026-05-07 08:59 42.14985 23.60819 35123 ft 454 kts 152°
2026-05-07 09:00 42.09650 23.65377 35105 ft 455 kts 151°
2026-05-07 09:00 42.04324 23.69977 35106 ft 455 kts 151°
2026-05-07 09:01 41.98980 23.74568 35120 ft 456 kts 151°
2026-05-07 09:01 41.93648 23.79113 35107 ft 456 kts 151°
2026-05-07 09:02 41.88285 23.83682 35109 ft 457 kts 151°
2026-05-07 09:02 41.82919 23.88262 35104 ft 457 kts 151°
2026-05-07 09:03 41.77549 23.92823 35109 ft 457 kts 151°
2026-05-07 09:03 41.72169 23.97378 35113 ft 457 kts 151°
2026-05-07 09:04 41.66793 24.01928 35117 ft 457 kts 151°
2026-05-07 09:04 41.61453 24.06436 35111 ft 457 kts 151°
2026-05-07 09:05 41.56069 24.10973 35107 ft 457 kts 151°
2026-05-07 09:05 41.50706 24.15568 35108 ft 459 kts 149°
2026-05-07 09:06 41.45407 24.20344 35106 ft 459 kts 149°
2026-05-07 09:06 41.40116 24.25150 35110 ft 460 kts 149°
2026-05-07 09:07 41.34809 24.29900 35111 ft 459 kts 149°
2026-05-07 09:07 41.29488 24.34610 35112 ft 459 kts 150°
2026-05-07 09:08 41.24166 24.39315 35119 ft 459 kts 149°
2026-05-07 09:08 41.18788 24.43891 35110 ft 457 kts 156°
2026-05-07 09:09 41.13074 24.47569 35102 ft 456 kts 158°
2026-05-07 09:09 41.07350 24.51220 35106 ft 457 kts 158°
2026-05-07 09:10 41.01661 24.54845 35110 ft 457 kts 158°
2026-05-07 09:10 40.95937 24.58500 35112 ft 457 kts 158°
2026-05-07 09:11 40.90206 24.62154 35096 ft 457 kts 158°
2026-05-07 09:11 40.84480 24.65796 35111 ft 457 kts 158°
2026-05-07 09:12 40.78747 24.69431 35121 ft 456 kts 158°
2026-05-07 09:12 40.73029 24.73062 35141 ft 456 kts 158°
2026-05-07 09:13 40.67307 24.76697 35139 ft 456 kts 158°
2026-05-07 09:13 40.61581 24.80313 35139 ft 456 kts 158°
2026-05-07 09:14 40.55851 24.83913 35141 ft 456 kts 158°
2026-05-07 09:14 40.50121 24.87510 35141 ft 456 kts 158°
2026-05-07 09:15 40.44473 24.91053 35131 ft 456 kts 158°
2026-05-07 09:15 40.38781 24.94619 35134 ft 456 kts 158°
2026-05-07 09:16 40.33053 24.98208 35137 ft 456 kts 158°
2026-05-07 09:16 40.27317 25.01793 35133 ft 456 kts 158°
2026-05-07 09:17 40.21577 25.05375 35123 ft 457 kts 158°
2026-05-07 09:17 40.15829 25.08949 35114 ft 458 kts 158°
2026-05-07 09:18 40.10066 25.12529 35123 ft 459 kts 158°
2026-05-07 09:18 40.04293 25.16099 35107 ft 459 kts 158°
2026-05-07 09:19 39.98518 25.19667 35105 ft 459 kts 158°
2026-05-07 09:19 39.92736 25.23219 35107 ft 459 kts 160°
2026-05-07 09:20 39.86733 25.25881 35109 ft 455 kts 166°
2026-05-07 09:20 39.80692 25.28353 35113 ft 455 kts 166°
2026-05-07 09:21 39.74644 25.30822 35106 ft 455 kts 167°
2026-05-07 09:21 39.68643 25.33275 35135 ft 455 kts 166°
2026-05-07 09:22 39.62592 25.35740 35126 ft 456 kts 166°
2026-05-07 09:22 39.56528 25.38210 35125 ft 457 kts 166°
2026-05-07 09:23 39.50447 25.40675 35114 ft 458 kts 166°
2026-05-07 09:23 39.44359 25.43138 35120 ft 458 kts 166°
2026-05-07 09:24 39.38273 25.45599 35125 ft 458 kts 166°
2026-05-07 09:24 39.32185 25.48061 35127 ft 458 kts 166°
2026-05-07 09:25 39.26135 25.50505 35121 ft 459 kts 166°
2026-05-07 09:25 39.20038 25.52964 35138 ft 458 kts 166°
2026-05-07 09:26 39.13946 25.55410 35141 ft 458 kts 166°
2026-05-07 09:26 39.07853 25.57857 35144 ft 458 kts 166°
2026-05-07 09:27 39.01755 25.60294 35141 ft 458 kts 166°
2026-05-07 09:28 38.92621 25.63940 35146 ft 458 kts 166°
2026-05-07 09:28 38.86527 25.66371 35139 ft 459 kts 166°
2026-05-07 09:29 38.80452 25.68790 35125 ft 460 kts 166°
2026-05-07 09:29 38.74328 25.71223 35131 ft 461 kts 166°
2026-05-07 09:30 38.68193 25.73656 35135 ft 462 kts 166°
2026-05-07 09:30 38.62038 25.76091 35138 ft 462 kts 166°
2026-05-07 09:31 38.55885 25.78523 35134 ft 462 kts 167°
2026-05-07 09:31 38.49768 25.80937 35141 ft 463 kts 167°
2026-05-07 09:32 38.43614 25.83363 35148 ft 463 kts 167°
2026-05-07 09:32 38.37458 25.85784 35144 ft 463 kts 167°
2026-05-07 09:33 38.31296 25.88187 35148 ft 463 kts 167°
2026-05-07 09:33 38.26133 25.90196 35153 ft 463 kts 167°
2026-05-07 09:34 38.19992 25.92775 35156 ft 465 kts 164°
2026-05-07 09:34 38.13950 25.95608 35148 ft 466 kts 163°
2026-05-07 09:35 38.07861 25.98494 35139 ft 467 kts 164°
2026-05-07 09:35 38.01708 26.01306 34243 ft 475 kts 164°
2026-05-07 09:35 37.98572 26.02719 33209 ft 480 kts 164°
2026-05-07 09:36 37.95450 26.04126 32685 ft 473 kts 163°
2026-05-07 09:36 37.92365 26.05521 32046 ft 469 kts 163°
2026-05-07 09:36 37.89304 26.06905 31420 ft 465 kts 163°
2026-05-07 09:36 37.86266 26.08275 30822 ft 462 kts 163°
2026-05-07 09:37 37.83254 26.09635 30222 ft 459 kts 163°
2026-05-07 09:37 37.80258 26.10990 29565 ft 455 kts 163°
2026-05-07 09:37 37.77292 26.12330 28992 ft 450 kts 163°
2026-05-07 09:37 37.74357 26.13655 28426 ft 446 kts 163°
2026-05-07 09:38 37.71449 26.14966 27856 ft 442 kts 163°
2026-05-07 09:38 37.68565 26.16263 27311 ft 438 kts 163°
2026-05-07 09:38 37.65700 26.17547 26770 ft 434 kts 162°
2026-05-07 09:38 37.62904 26.18804 26251 ft 431 kts 162°
2026-05-07 09:39 37.60086 26.20070 25735 ft 427 kts 162°
2026-05-07 09:39 37.57293 26.21321 25216 ft 424 kts 162°
2026-05-07 09:39 37.54515 26.22564 24720 ft 421 kts 162°
2026-05-07 09:39 37.51760 26.23798 24215 ft 419 kts 162°
2026-05-07 09:40 37.49010 26.25028 23699 ft 418 kts 162°
2026-05-07 09:40 37.46275 26.26250 23142 ft 416 kts 162°
2026-05-07 09:40 37.43558 26.27459 22630 ft 413 kts 162°
2026-05-07 09:40 37.40859 26.28661 22103 ft 410 kts 162°
2026-05-07 09:41 37.38175 26.29856 21587 ft 408 kts 162°
2026-05-07 09:41 37.35504 26.31047 21052 ft 407 kts 162°
2026-05-07 09:41 37.32842 26.32235 20522 ft 405 kts 162°
2026-05-07 09:41 37.30223 26.33401 19992 ft 404 kts 162°
2026-05-07 09:42 37.27567 26.34581 19458 ft 404 kts 162°
2026-05-07 09:42 37.24921 26.35756 18909 ft 403 kts 162°
2026-05-07 09:42 37.22272 26.36931 18367 ft 403 kts 162°
2026-05-07 09:42 37.19645 26.38097 17885 ft 398 kts 162°
2026-05-07 09:43 37.17058 26.39246 17232 ft 387 kts 162°
2026-05-07 09:43 37.14582 26.40347 16769 ft 371 kts 162°
2026-05-07 09:43 37.12189 26.41412 16289 ft 358 kts 161°
2026-05-07 09:43 37.09881 26.42442 15824 ft 346 kts 161°
2026-05-07 09:44 37.07644 26.43439 15372 ft 337 kts 161°
2026-05-07 09:44 37.05438 26.44419 14921 ft 336 kts 161°
2026-05-07 09:44 37.03223 26.45397 14483 ft 339 kts 161°
2026-05-07 09:44 37.00989 26.46381 14015 ft 342 kts 161°
2026-05-07 09:45 36.98736 26.47372 13514 ft 344 kts 161°
2026-05-07 09:45 36.96478 26.48367 13034 ft 344 kts 161°
2026-05-07 09:45 36.94224 26.49360 12557 ft 344 kts 161°
2026-05-07 09:45 36.91975 26.50385 12082 ft 344 kts 156°
2026-05-07 09:46 36.89934 26.51927 11586 ft 343 kts 140°
2026-05-07 09:46 36.88308 26.54091 11090 ft 342 kts 124°
2026-05-07 09:46 36.87195 26.56699 10582 ft 340 kts 111°
2026-05-07 09:46 36.86279 26.59393 10314 ft 328 kts 111°
2026-05-07 09:47 36.85412 26.61924 10065 ft 309 kts 111°
2026-05-07 09:47 36.84580 26.64351 9654 ft 297 kts 111°
2026-05-07 09:47 36.84000 26.66816 9178 ft 297 kts 95°
2026-05-07 09:47 36.84046 26.69358 8494 ft 290 kts 77°
2026-05-07 09:48 36.84666 26.71708 7868 ft 282 kts 61°
2026-05-07 09:48 36.85701 26.73756 7259 ft 277 kts 54°
2026-05-07 09:48 36.86794 26.75764 6813 ft 278 kts 55°
2026-05-07 09:48 36.87834 26.77683 6746 ft 263 kts 55°
2026-05-07 09:49 36.88828 26.79520 6694 ft 248 kts 55°
2026-05-07 09:49 36.89770 26.81262 6620 ft 235 kts 56°
2026-05-07 09:49 36.90667 26.82917 6522 ft 225 kts 55°
2026-05-07 09:49 36.91525 26.84496 6417 ft 214 kts 55°
2026-05-07 09:50 36.92349 26.86035 6132 ft 214 kts 56°
2026-05-07 09:50 36.93168 26.87588 5823 ft 214 kts 56°
2026-05-07 09:50 36.93986 26.89141 5524 ft 214 kts 56°
2026-05-07 09:50 36.94814 26.90713 5121 ft 219 kts 56°
2026-05-07 09:51 36.95662 26.92319 4776 ft 222 kts 56°
2026-05-07 09:51 36.96343 26.94044 4441 ft 223 kts 82°
2026-05-07 09:51 36.96051 26.95893 4146 ft 221 kts 123°
2026-05-07 09:51 36.94876 26.97094 3852 ft 221 kts 151°
2026-05-07 09:52 36.93537 26.98054 3528 ft 223 kts 148°
2026-05-07 09:52 36.92215 26.99086 3203 ft 225 kts 147°
2026-05-07 09:52 36.90896 27.00133 2890 ft 224 kts 147°
2026-05-07 09:52 36.89584 27.01173 2589 ft 221 kts 148°
2026-05-07 09:53 36.88323 27.02169 2295 ft 208 kts 148°
2026-05-07 09:53 36.87139 27.03108 2080 ft 193 kts 148°
2026-05-07 09:53 36.86052 27.03970 1827 ft 177 kts 148°
2026-05-07 09:53 36.85088 27.04735 1637 ft 157 kts 148°
2026-05-07 09:54 36.84182 27.05450 1395 ft 147 kts 149°
2026-05-07 09:54 36.83339 27.06107 1222 ft 142 kts 149°
2026-05-07 09:54 36.82514 27.06740 1047 ft 140 kts 149°
2026-05-07 09:54 36.81701 27.07374 851 ft 137 kts 148°
2026-05-07 09:55 36.80886 27.07994 581 ft 136 kts 148°
2026-05-07 09:55 36.80112 27.08605 420 ft 124 kts 148°
2026-05-07 09:55 36.79561 27.09034 419 ft 52 kts 148°
2026-05-07 09:55 36.79383 27.09173 415 ft 27 kts 148°
2026-05-07 09:56 36.79217 27.09302 406 ft 29 kts 148°
2026-05-07 09:56 36.79040 27.09439 399 ft 31 kts 148°
2026-05-07 09:56 36.78865 27.09575 392 ft 29 kts 148°
2026-05-07 09:56 36.78694 27.09708 393 ft 27 kts 148°
2026-05-07 09:57 36.78581 27.09765 390 ft 12 kts 175°
2026-05-07 09:57 36.78584 27.09820 389 ft 10 kts 339°
2026-05-07 09:57 36.78622 27.09769 391 ft 8 kts 316°
2026-05-07 09:57 36.78695 27.09708 393 ft 15 kts 328°
2026-05-07 09:58 36.78777 27.09645 394 ft 13 kts 328°
2026-05-07 09:58 36.78845 27.09592 395 ft 10 kts 328°
2026-05-07 09:58 36.78896 27.09554 394 ft 7 kts 328°
2026-05-07 09:58 36.78941 27.09518 397 ft 10 kts 326°
2026-05-07 09:59 36.78999 27.09471 396 ft 9 kts 328°
2026-05-07 09:59 36.79058 27.09425 399 ft 12 kts 328°
2026-05-07 09:59 36.79135 27.09366 403 ft 13 kts 328°
2026-05-07 09:59 36.79226 27.09295 407 ft 16 kts 328°
2026-05-07 10:00 36.79315 27.09227 411 ft 15 kts 328°
2026-05-07 10:00 36.79398 27.09162 415 ft 14 kts 328°
2026-05-07 10:00 36.79482 27.09096 417 ft 15 kts 328°
2026-05-07 10:00 36.79570 27.09027 418 ft 15 kts 328°
2026-05-07 10:01 36.79669 27.08990 416 ft 16 kts 357°
2026-05-07 10:01 36.79790 27.08986 411 ft 18 kts 358°
2026-05-07 10:01 36.79899 27.08981 415 ft 13 kts 357°
2026-05-07 10:01 36.79990 27.08941 411 ft 15 kts 328°
2026-05-07 10:02 36.80069 27.08878 416 ft 8 kts 326°
2026-05-07 10:02 36.80099 27.08862 419 ft 4 kts
2026-05-07 10:02 36.80128 27.08893 414 ft 6 kts 53°
2026-05-07 10:02 36.80143 27.08922 419 ft 3 kts 57°
2026-05-07 10:03 36.80148 27.08932 413 ft 0 kts 58°